Simultaneous Nadir Overpasses (SNOs) Predictions

Prediction of SNOs between AQUA and METOP-A Satellite Orbit:

Table of predicted SNOs for the next 14.0 days since TLE Epoch: 7/19/2019
Index Date (AQUA) Time (AQUA) Lat,Lon (AQUA) SZA (AQUA ) Date (METOP-A) Time (METOP-A) Lat,Lon (METOP-A) SZA (METOP-A ) Distance(km) Time Diff (sec)
1 07/20/2019 05:25:32 75.30, 89.36 54.81 07/20/2019 05:24:44 75.30, 89.47 54.81 2.98 48
2 07/20/2019 06:14:59 -75.34,-103.11 125.14 07/20/2019 06:15:25 -75.33,-103.12 125.16 1.70 26
3 07/23/2019 00:59:47 75.29, 155.83 55.34 07/23/2019 00:59:08 75.28, 155.77 55.35 2.10 39
4 07/23/2019 01:49:14 -75.33, -36.64 124.61 07/23/2019 01:49:48 -75.36, -36.67 124.58 3.49 34
5 07/25/2019 20:34:03 75.33,-137.85 55.98 07/25/2019 20:33:31 75.30,-137.79 55.96 3.33 32
6 07/25/2019 21:23:30 -75.37, 29.69 123.97 07/25/2019 21:24:12 -75.34, 29.64 124.01 3.30 42
7 07/28/2019 16:08:17 75.32, -71.40 56.61 07/28/2019 16:07:53 75.33, -71.36 56.61 1.09 24
8 07/28/2019 16:57:44 -75.36, 96.14 123.35 07/28/2019 16:58:34 -75.37, 96.09 123.35 1.46 50
9 07/31/2019 10:52:55 -74.81,-171.25 123.31 07/31/2019 10:51:48 -74.79,-173.84 123.16 75.67 67
10 07/31/2019 11:42:32 75.32, -4.95 57.28 07/31/2019 11:42:16 75.35, -4.93 57.31 3.13 16




NCC Satellite Simultaneous Nadir Overpasses (SNOs) Prediction Service
